Location: ??????
(56.0120°N, 39.1740°E)
Time: 20:52:59
(UTC+00:00)

RESURS DK-1 - Pass Details

Date: 14 April 2026
Orbit: 524 x 530 km, 69.9° (Epoch: 11 May)

Event Time Altitude Azimuth Distance (km) Brightness Sun altitude
Exits shadow 20:17:47 22° 255° (WSW) 1,192 4.0 -22.9°
Maximum altitude 20:19:57 43° 316° (NW) 755 3.4 -23.0°
Drops below altitude 10° 20:23:45 10° 29° (NNE) 1,782 5.5 -23.2°
Sets 20:26:02 0° 36° (NE) 2,676 6.4 -23.3°
